[Iaude] MPEC T203: 2023 TE8 [a=1.21,e=0.14,i=23.1,H=26.0]

mpec at marsden.cfa.harvard.edu mpec at marsden.cfa.harvard.edu
Fri Oct 13 02:39:15 EDT 2023


M.P.E.C. 2023-T203                             Issued 2023 October 13, 06:37 UT

     The Minor Planet Electronic Circulars contain information on unusual
         minor planets, routine data on comets and natural satellites,
         and occasional editorial announcements.  They are published
    on behalf of Division F of the International Astronomical Union by the
          Minor Planet Center, Smithsonian Astrophysical Observatory,
                          Cambridge, MA 02138, U.S.A.
			  
             Prepared using the Tamkin Foundation Computer Network

                              MPC at CFA.HARVARD.EDU
            URL https://www.minorplanetcenter.net/    ISSN 1523-6714

                                    2023 TE8                                    


Observations:
     K23T08E 1C2023 10 09.23733 22 50 15.61 +33 23 13.2          20.9 GVET203G96
     K23T08E 1C2023 10 09.24301 22 50 19.24 +33 21 12.3          21.2 GVET203G96
     K23T08E 1C2023 10 09.24868 22 50 22.88 +33 19 11.9          21.1 GVET203G96
     K23T08E*1C2023 10 12.19027023 26 09.060+11 56 11.90               VET203G96
     K23T08E 1C2023 10 12.19547523 26 12.520+11 53 35.50               VET203G96
     K23T08E 1C2023 10 12.20067723 26 15.980+11 50 55.10               VET203G96
     K23T08E 1C2023 10 12.20588223 26 19.530+11 48 18.20         20.43GVET203G96
     K23T08E KC2023 10 12.23269323 26 37.424+11 34 41.12         20.21GVET203I52
     K23T08E KC2023 10 12.23395023 26 38.267+11 34 02.71         20.24GVET203I52
     K23T08E KC2023 10 12.23648323 26 39.944+11 32 45.35         20.73GVET203I52
     K23T08E KC2023 10 12.34570123 27 53.525+10 36 57.20         20.45GVET203I52
     K23T08E KC2023 10 12.34722723 27 54.562+10 36 10.08         20.39GVET203I52
     K23T08E KC2023 10 12.34874323 27 55.616+10 35 23.03         20.28GVET203I52
     K23T08E KC2023 10 12.35027623 27 56.653+10 34 36.05         20.19GVET203I52
     K23T08E KB2023 10 12.80546423 33 46.77 +06 38 46.8                VET203I93
     K23T08E KB2023 10 12.81117323 33 50.80 +06 35 49.0          19.6 GVET203I93
     K23T08E KB2023 10 12.81688623 33 54.76 +06 32 51.3          20.0 GVET203I93
     K23T08E KC2023 10 13.06179423 36 55.84 +04 25 00.2          20.0 VuET203H21
     K23T08E KC2023 10 13.06372523 36 57.15 +04 23 59.7          19.9 VuET203H21
     K23T08E KC2023 10 13.06565623 36 58.48 +04 22 59.3          20.4 VuET203H21
     K23T08E KC2023 10 13.06758623 36 59.80 +04 21 58.5          20.4 VuET203H21
     K23T08E KC2023 10 13.07022323 37 01.59 +04 20 35.6          20.7 VuET203H21

Observer details:
G96 Mt. Lemmon Survey.  Observers K. W. Wierzchos, D. Rankin.  Measurers B.
    Gray, D. Rankin, F. C. Shelly, E. C. Beshore, D. Fay, J. B. Fazekas, D. C.
    Fuls, A. R. Gibbs, A. D. Grauer, H. Groeller, J. K. Hogan, R. A. Kowalski,
    S. M. Larson, G. J. Leonard, R. L. Seaman, K. W. Wierzchos.  1.5-m
    reflector + 10K CCD.
H21 Astronomical Research Observatory, Westfield.  Observer R. Holmes.
    Measurers T. Linder, R. Holmes, L. Horn.  0.76-m f/3.0 astrograph + CCD.
I52 Steward Observatory, Mt. Lemmon Station.  Observer J. B. Fazekas.
    Measurers E. C. Beshore, D. Fay, J. B. Fazekas, D. C. Fuls, A. R. Gibbs,
    A. D. Grauer, H. Groeller, J. K. Hogan, R. A. Kowalski, S. M. Larson, G.
    J. Leonard, D. Rankin, R. L. Seaman, F. C. Shelly, K. W. Wierzchos.  1.0-m
    prime focus + CCD.
I93 St Pardon de Conques.  Observer F. Losse.  0.40-m f/3.7 reflector + CMO.

Orbital elements:
2023 TE8                                                 Earth MOID = 0.0401 AU
Epoch 2023 Sept. 13.0 TT = JDT 2460200.5                Veres                   
M 331.24502              (2000.0)            P               Q                  
n   0.74085797     Peri.  188.03343     +0.89569214     -0.42618067             
a   1.2096120      Node   198.83334     +0.42670904     +0.90406047             
e   0.1426427      Incl.   23.14922     +0.12511986     -0.03232185             
P   1.33           H   26.06          G   0.15           U   8                  
Residuals in seconds of arc
231009 G96  0.1+  0.1+    231012 I52  0.3+  0.3-    231012 I93  0.5+  0.1-
231009 G96  0.0   0.1-    231012 I52  0.2+  0.4-    231013 H21  0.4+  0.3+
231009 G96  0.1-  0.1+    231012 I52  0.1+  0.2-    231013 H21  0.1+  0.5+
231012 G96  0.3-  0.2+    231012 I52  0.1-  0.4-    231013 H21  0.2+  0.7+
231012 G96  0.6-  1.8+    231012 I52  0.1+  0.7-    231013 H21  0.1+  0.6+
231012 G96  0.9-  0.6-    231012 I52  0.1-  0.4-    231013 H21  0.1-  0.5+
231012 G96  0.2+  0.7+    231012 I93  0.7-  1.1-
231012 I52  0.3+  0.2-    231012 I93  0.4+  0.8-

Ephemeris:
2023 TE8                 a,e,i = 1.21, 0.14, 23                  q = 1.0371
Date    TT    R. A. (2000) Decl.     Delta      r    Elong.  Phase     V
2023 09 13    20 03 30.9 +67 54 23   0.2139  1.0653   100.2    68.4    25.3
...
2023 09 28    21 04 00.8 +62 06 45   0.1175  1.0480   109.8    64.1    23.8
...
2023 10 06    22 13 42.1 +47 52 59   0.06856 1.0419   126.2    50.8    22.2
...
2023 10 12    23 23 45.5 +13 33 27   0.04506 1.0389   153.9    25.0    20.6
2023 10 13    23 36 03.2 +04 59 43   0.04410 1.0386   156.4    22.6    20.4
2023 10 14    23 48 18.4 -03 43 40   0.04430 1.0383   155.7    23.3    20.5
...
2023 10 20    00 56 43.9 -41 23 53   0.06504 1.0371   127.7    49.4    22.0
...
2023 10 28    02 04 02.1 -57 18 30   0.1134  1.0378   109.8    64.3    23.7
...
2023 11 12    03 08 48.8 -62 58 49   0.2102  1.0456    99.5    69.0    25.2

M. P. C. Staff               (C) Copyright 2023 MPC           M.P.E.C. 2023-T203





More information about the Iaude mailing list